Home   Weather   Leawood   Past weeks

Flag for USA Past Weather in Leawood, Kansas, USA — Yesterday and Last 2 Weeks

Now
74 °F

Sunny.


Feels Like: 75 °F
Forecast: 61 / 78 °F
Wind: 3 mph from Northeast

Location: Johnson County Executive Airport

Current Time: Aug 31, 2016 at 9:01:35 PM

Latest Report: Aug 31, 2016 at 7:53 PM


Visibility: 10 mi

Pressure: 30.06 "Hg

Humidity: 74%

Dew Point: 65 °F

Location of LeawoodLocation

Past Weather in Leawood — Graph

°F

Leawood Temperature Yesterday

Maximum temperature yesterday: 86 °F (at 3:53 PM)
Minimum temperature yesterday: 69 °F (at 2:53 AM)
Average temperature yesterday: 74 °F

High & Low Weather Summary for the Past Weeks

 TemperatureHumidityPressure
High88 °F (Aug 17, 1:53 PM)100% (Aug 19, 5:53 AM)30.17 "Hg (Aug 19, 5:53 AM)
Low57 °F (Aug 21, 6:53 AM)34% (Aug 21, 1:53 PM)29.73 "Hg (Aug 19, 5:53 PM)
Average74 °F78%30.02 "Hg
* Reported Aug 16 7:53 PM — Aug 31 7:53 PM, Leawood, Weather by CustomWeather, © 2016

Note: Actual official high and low records may vary slightly from our data, if they occured in-between our weather recording intervals... More about our weather records

Advertising

Leawood Weather History for the Previous 24 Hours

Scroll right to see more
 ConditionsComfort  
Time TempWeatherWind HumidityBarometerVisibility
7:53 PM
Wed, Aug 31
74 °FSunny.3 mph74%30.06 "Hg10 mi
6:53 PM76 °FPassing clouds.9 mph74%30.05 "Hg10 mi
5:53 PM78 °FOvercast.7 mph71%30.05 "Hg10 mi
4:53 PM78 °FMore clouds than sun.9 mph74%30.05 "Hg10 mi
3:53 PM78 °FScattered clouds.10 mph74%30.06 "Hg10 mi
2:53 PM77 °FOvercast.9 mph77%30.06 "Hg10 mi
1:53 PM77 °FScattered clouds.7 mph79%30.08 "Hg10 mi
12:53 PM76 °FBroken clouds.5 mph82%30.10 "Hg10 mi
11:53 AM75 °FMostly cloudy.6 mph88%30.11 "Hg10 mi
10:53 AM71 °FLight rain. Fog.No wind96%30.12 "Hg4 mi
9:53 AM71 °FMostly cloudy.No wind96%30.11 "Hg10 mi
8:53 AM71 °FCloudy.9 mph93%30.10 "Hg10 mi
7:53 AM70 °FPartly sunny.5 mph93%30.09 "Hg10 mi
6:53 AM70 °FOvercast.3 mph93%30.08 "Hg10 mi
5:53 AM70 °FLight rain. Passing clouds.6 mph97%30.07 "Hg10 mi
4:53 AM71 °FLow clouds.6 mph96%30.08 "Hg8 mi
3:53 AM71 °FLight rain. Fog.7 mph96%30.08 "Hg6 mi
2:53 AM71 °FPassing clouds.No wind100%30.10 "Hg7 mi
1:53 AM72 °FLight rain. Mostly cloudy.No wind97%30.09 "Hg10 mi
12:53 AM72 °FPassing clouds.No wind93%30.10 "Hg10 mi
11:53 PM
Tue, Aug 30
72 °FClear.No wind97%30.09 "Hg10 mi
10:53 PM72 °FPassing clouds.6 mph93%30.09 "Hg10 mi
10:01 PM73 °FLight rain. Passing clouds.5 mph90%30.11 "Hg10 mi
9:53 PM73 °FThundershowers. Passing clouds.5 mph90%30.08 "Hg10 mi
9:03 PM72 °FThundershowers. Fog.5 mph97%30.12 "Hg6 mi
Weather by CustomWeather, © 2016

See weather overviewHow to use our weather pages